Flag for U.S.A. Weather past 2 weeks in Lakewood, New Jersey, U.S.A.

Now
27 °F

Overcast.


Feels Like: 15 °F
Forecast: 26 / 43 °F
Wind: 15 mph from Northwest

Location: Belmar-Farmdale

Current Time: Mar 29, 2015 at 3:58:49 AM

Latest Report: Mar 29, 2015 at 3:35 AM


Visibility: 10 mi

Pressure: 30.14 "Hg

Humidity: 43%

Dew point: 7 °F

Location of LakewoodLocation

Historic Weather in Lakewood — Graph

°F

Lakewood temperature yesterday

Maximum temperature yesterday: 43 °F (at 12:15 PM)
Minimum temperature yesterday: 28 °F (at 10:35 PM)
Average temperature yesterday: 37 °F

Past Weeks' High & Low Weather Summary

 TemperatureHumidityPressure
High66 °F (Mar 26, 3:35 PM)88% (Mar 14, 2:15 PM)30.42 "Hg (Mar 14, 2:15 PM)
Low25 °F (Mar 19, 4:35 AM)20% (Mar 19, 2:55 PM)29.56 "Hg (Mar 17, 10:55 AM)
Average39 °F56%30.02 "Hg
* Reported Mar 14 2:15 AM — Mar 29 2:35 AM, Lakewood, Weather by CustomWeather, © 2015

Note: Actual official high and low records may vary slightly from our data, if they occured in-between our weather recording intervals... More about our weather records

Advertising

Lakewood weather history for previous 24 hours

 ConditionsComfort  
Time TempWeatherWind HumidityBarometerVisibility
2:35 AM
Sun, Mar 29
27 °FOvercast.12 mph50%30.14 "Hg10 mi
2:15 AM27 °FOvercast.13 mph50%30.14 "Hg10 mi
1:55 AM27 °FMostly cloudy.13 mph50%30.13 "Hg10 mi
1:35 AM27 °FOvercast.17 mph50%30.13 "Hg10 mi
1:15 AM27 °FOvercast.17 mph50%30.13 "Hg10 mi
12:55 AM27 °FMostly cloudy.13 mph54%30.12 "Hg10 mi
12:35 AM27 °FOvercast.16 mph50%30.12 "Hg10 mi
12:15 AM27 °FOvercast.20 mph50%30.12 "Hg10 mi
11:35 PM
Sat, Mar 28
28 °FOvercast.17 mph43%30.11 "Hg10 mi
11:15 PM28 °FOvercast.13 mph40%30.10 "Hg10 mi
10:55 PM28 °FPassing clouds.15 mph40%30.10 "Hg10 mi
10:35 PM28 °FPassing clouds.14 mph43%30.09 "Hg10 mi
10:15 PM30 °FOvercast.18 mph40%30.08 "Hg10 mi
9:55 PM30 °FOvercast.16 mph43%30.07 "Hg10 mi
9:35 PM30 °FPassing clouds.15 mph43%30.06 "Hg10 mi
9:15 PM30 °FPassing clouds.13 mph43%30.06 "Hg10 mi
8:55 PM30 °FPassing clouds.13 mph43%30.04 "Hg10 mi
8:35 PM32 °FPassing clouds.13 mph40%30.03 "Hg10 mi
8:15 PM34 °FPartly sunny.17 mph38%30.01 "Hg10 mi
7:55 PM34 °FMore clouds than sun.22 mph38%30.00 "Hg10 mi
7:35 PM36 °FOvercast.17 mph38%29.98 "Hg10 mi
7:15 PM36 °FMostly cloudy.17 mph41%29.96 "Hg10 mi
6:55 PM37 °FOvercast.18 mph38%29.95 "Hg10 mi
6:35 PM37 °FOvercast.18 mph35%29.93 "Hg10 mi
6:15 PM37 °FOvercast.12 mph38%29.91 "Hg10 mi
5:55 PM39 °FOvercast.12 mph39%29.90 "Hg10 mi
5:35 PM39 °FOvercast.18 mph39%29.88 "Hg10 mi
4:55 PM39 °FOvercast.13 mph39%29.86 "Hg10 mi
4:35 PM39 °FMostly cloudy.15 mph39%29.85 "Hg10 mi
4:15 PM39 °FOvercast.18 mph39%29.84 "Hg10 mi
3:55 PM41 °FOvercast.16 mph39%29.84 "Hg10 mi
3:35 PM41 °FOvercast.16 mph39%29.83 "Hg10 mi
3:15 PM41 °FOvercast.14 mph39%29.82 "Hg10 mi
2:55 PM43 °FOvercast.20 mph36%29.82 "Hg10 mi
2:35 PM41 °FOvercast.14 mph39%29.82 "Hg10 mi
2:15 PM43 °FPartly sunny.13 mph36%29.82 "Hg10 mi
1:55 PM43 °FPartly sunny.16 mph36%29.82 "Hg10 mi
1:35 PM43 °FPartly sunny.15 mph39%29.82 "Hg10 mi
1:15 PM43 °FMore clouds than sun.15 mph39%29.81 "Hg10 mi
12:55 PM43 °FBroken clouds.15 mph39%29.82 "Hg10 mi
12:35 PM43 °FPassing clouds.14 mph39%29.81 "Hg10 mi
12:15 PM43 °FSunny.9 mph39%29.81 "Hg10 mi
11:55 AM41 °FScattered clouds.14 mph42%29.82 "Hg10 mi
11:35 AM39 °FOvercast.12 mph42%29.82 "Hg10 mi
11:15 AM37 °FOvercast.16 mph45%29.82 "Hg10 mi
10:55 AM37 °FOvercast.16 mph45%29.82 "Hg10 mi
10:35 AM37 °FOvercast.14 mph45%29.82 "Hg10 mi
10:15 AM36 °FOvercast.17 mph48%29.82 "Hg10 mi
9:55 AM36 °FPartly sunny.14 mph48%29.82 "Hg10 mi
9:35 AM34 °FPassing clouds.18 mph48%29.81 "Hg10 mi
9:15 AM36 °FSunny.15 mph48%29.80 "Hg10 mi
8:55 AM36 °FSunny.17 mph48%29.80 "Hg10 mi
8:35 AM34 °FSunny.16 mph51%29.80 "Hg10 mi
8:15 AM34 °FPassing clouds.14 mph51%29.80 "Hg10 mi
7:55 AM34 °FPartly sunny.17 mph51%29.79 "Hg10 mi
7:35 AM34 °FOvercast.16 mph51%29.79 "Hg10 mi
7:15 AM34 °FMostly cloudy.14 mph51%29.78 "Hg10 mi
6:55 AM36 °FOvercast.14 mph52%29.77 "Hg10 mi
6:35 AM36 °FOvercast.13 mph52%29.76 "Hg10 mi
6:15 AM36 °FOvercast.14 mph52%29.76 "Hg10 mi
5:55 AM36 °FOvercast.13 mph56%29.75 "Hg10 mi
5:35 AM36 °FPassing clouds.13 mph56%29.75 "Hg10 mi
5:15 AM36 °FPassing clouds.13 mph56%29.75 "Hg10 mi
4:55 AM36 °FPassing clouds.14 mph56%29.74 "Hg10 mi
4:35 AM37 °FOvercast.12 mph52%29.74 "Hg10 mi
4:15 AM37 °FOvercast.9 mph52%29.75 "Hg10 mi
3:55 AM37 °FMostly cloudy.9 mph56%29.74 "Hg10 mi
3:35 AM37 °FOvercast.12 mph56%29.74 "Hg10 mi
3:15 AM39 °FOvercast.13 mph52%29.74 "Hg10 mi
Weather by CustomWeather, © 2015

See weather overviewHow to use our weather pages